Theta_e
332 332 332 332 333 333 333 333 332 331 332 332 330 331 331 329 329 330 329 328 327 327 327 328 327 326 326 327 328 329 330 332 333 334 333 332 332 330 325 320 320 318 315 313 312 311 310 308 307 307 306 306 306 306 306 306 306 306 306 306 305 306 305 305 305 306 307 307 307 308 308 309 310 311 312 313 313 314 313 311 308 306 304 304 304
332 333 333 333 333 333 332 332 332 331 331 330 329 330 330 329 330 329 329 328 326 326 326 326 327 327 326 326 327 328 329 331 332 333 333 332 332 331 327 320 319 319 318 316 315 314 313 310 309 308 307 307 306 306 306 306 306 306 306 306 306 305 305 305 305 305 305 306 307 307 308 308 309 310 311 312 313 313 314 313 310 307 306 305 304
330 332 333 333 332 332 333 332 333 332 330 329 328 329 330 329 329 329 329 328 326 325 325 326 326 326 326 326 326 327 329 330 330 331 331 332 331 330 328 324 320 318 319 319 317 316 314 313 312 311 310 309 308 307 307 306 306 306 306 306 306 305 305 305 305 305 305 305 306 307 307 307 308 309 310 311 312 313 313 313 312 309 307 305 304
330 330 332 333 332 332 333 333 333 333 330 329 329 330 330 330 330 328 328 327 326 324 324 325 325 326 325 325 326 327 328 329 330 330 330 331 330 330 330 328 324 320 319 320 319 318 316 315 315 314 314 313 312 310 308 307 307 306 306 306 306 306 305 305 305 305 305 305 305 306 306 307 308 308 309 311 312 312 313 313 313 311 309 307 305
331 330 329 331 331 331 332 333 334 333 330 329 330 330 330 331 331 328 327 326 325 325 324 325 325 326 326 325 325 326 327 329 329 329 330 330 330 330 330 329 328 324 321 320 321 321 319 317 318 317 316 316 314 314 312 311 309 308 307 306 306 306 305 305 305 305 305 305 304 305 305 306 307 308 309 310 311 312 312 313 313 313 311 309 307
331 330 329 329 330 331 331 333 334 333 330 330 330 331 330 332 331 328 327 324 323 323 321 323 325 325 326 326 326 326 327 328 328 329 329 329 329 329 329 329 329 328 326 324 321 321 321 321 320 319 318 318 317 316 315 314 313 312 310 309 307 306 306 305 305 305 304 304 304 304 304 305 306 307 308 309 311 312 312 312 312 313 312 310 308
330 329 329 330 330 331 332 333 334 334 332 331 331 331 330 331 331 329 328 325 324 322 315 317 324 325 326 327 327 326 327 327 327 328 329 329 329 329 329 329 330 330 330 329 325 322 322 322 322 322 321 320 319 319 318 316 315 314 313 312 311 309 308 307 306 305 305 305 304 304 304 305 305 307 307 308 310 311 312 312 312 313 313 312 310
330 330 329 330 331 331 331 332 333 334 333 332 332 331 331 331 330 329 328 327 326 326 320 318 323 326 327 327 327 327 327 327 327 327 328 328 328 329 329 329 329 330 331 331 330 328 326 324 323 323 323 322 321 320 320 319 317 316 315 314 313 312 311 310 310 309 308 306 304 304 304 304 305 306 307 308 309 311 312 312 312 312 312 312 311
327 328 329 331 332 332 331 331 332 332 331 331 332 331 331 330 330 329 329 329 328 327 326 324 323 325 327 327 328 327 328 328 327 327 327 327 328 328 329 329 329 330 330 331 331 331 330 328 326 324 324 324 323 322 321 320 319 317 317 315 315 314 313 313 312 312 312 310 308 305 304 304 305 305 306 307 309 310 311 312 312 312 312 312 312
322 325 327 329 331 332 332 331 331 331 330 330 330 330 330 330 330 329 329 330 329 328 329 327 326 325 323 324 327 329 329 329 328 328 328 327 327 327 328 329 329 330 330 330 330 331 331 330 329 326 325 325 325 325 323 322 320 319 318 318 318 318 316 315 314 313 312 312 311 309 307 305 305 306 307 307 309 310 311 312 313 312 312 312 312
320 324 327 328 329 330 331 332 331 331 330 330 329 330 330 330 330 329 329 329 329 329 330 329 329 329 325 324 326 327 328 329 329 329 328 328 327 327 328 327 328 329 330 330 330 331 330 330 330 329 326 325 325 325 325 324 323 321 320 320 320 320 320 319 318 316 314 313 311 311 311 309 307 306 307 308 308 310 312 312 313 312 312 312 312
318 323 325 325 326 327 327 330 330 330 331 330 329 329 329 329 329 329 329 328 329 330 330 330 328 327 327 325 325 325 327 328 329 329 328 328 327 327 327 327 328 328 329 330 330 331 331 331 331 330 330 328 326 325 324 324 325 324 323 322 322 321 322 322 322 319 317 314 312 311 312 313 312 308 307 308 308 309 311 312 313 313 312 312 311
313 320 323 322 323 324 325 326 329 329 329 330 329 329 329 329 328 329 328 327 328 328 329 331 327 324 324 324 324 324 325 327 328 328 328 327 327 327 327 327 327 328 329 330 330 330 330 331 331 330 330 331 329 327 326 324 325 325 325 325 324 324 324 323 323 322 320 317 314 312 312 315 317 316 311 308 308 308 310 311 313 313 313 312 312
310 317 322 322 323 323 324 325 326 327 328 328 328 329 329 329 329 329 328 327 327 327 328 328 326 326 327 325 325 325 324 324 325 326 326 327 327 327 327 328 327 328 328 328 329 329 329 330 331 330 330 330 330 330 328 326 324 323 323 325 326 326 326 324 323 323 323 322 318 314 312 312 317 321 318 311 308 308 308 310 311 313 314 313 312
315 318 321 322 322 322 323 324 324 326 327 327 328 329 329 329 330 329 328 328 328 328 327 327 326 327 329 328 326 325 324 323 323 324 325 325 326 327 328 328 328 328 327 327 327 328 328 328 329 330 330 330 330 330 330 329 327 323 321 323 325 326 327 326 325 324 324 325 323 319 314 311 313 320 321 316 312 310 308 308 309 310 313 314 313
321 321 322 321 321 321 321 322 322 323 324 325 326 327 328 328 329 329 328 328 329 329 328 328 327 327 328 329 327 326 326 324 323 324 325 323 324 326 327 327 327 327 327 327 327 328 328 328 328 329 330 330 330 330 330 330 330 327 323 322 322 325 326 327 327 326 325 325 325 323 320 314 310 314 320 320 318 316 314 312 310 309 310 312 313
322 322 321 320 321 320 320 320 320 321 321 322 323 323 324 325 327 327 328 328 328 329 329 328 328 328 329 329 328 328 327 324 323 324 325 325 324 325 327 327 327 327 327 327 327 328 328 328 328 329 330 331 331 331 330 330 330 329 327 325 323 324 325 327 327 327 327 326 325 325 324 321 314 312 317 321 321 320 319 318 316 312 310 310 312
321 321 320 320 321 320 320 320 320 320 320 321 321 320 321 322 323 325 326 327 328 328 328 328 329 329 329 330 330 329 328 325 323 322 323 324 325 324 326 326 326 327 328 328 328 328 329 330 330 330 331 331 331 331 331 330 329 329 329 328 325 324 324 325 326 327 328 327 326 326 325 325 322 316 315 319 322 322 321 321 320 318 315 312 311
319 320 319 320 319 319 320 320 319 319 319 320 320 320 320 319 320 321 322 323 326 327 327 327 328 327 328 328 328 327 327 328 326 324 324 324 325 324 325 326 326 326 327 328 329 328 328 329 329 330 331 330 330 331 330 330 329 329 329 329 326 325 324 324 326 326 327 327 327 327 326 326 326 322 318 317 320 323 323 322 322 322 320 317 314
317 319 319 318 316 316 317 318 318 317 317 317 317 316 317 315 314 316 319 320 321 323 324 325 325 326 326 326 326 326 327 329 328 328 328 328 327 326 325 324 324 326 326 327 328 327 327 328 328 329 330 330 330 331 331 330 330 330 329 329 328 327 326 325 325 326 326 327 327 327 326 326 327 326 324 320 319 321 322 323 323 323 323 322 320
314 316 316 314 312 312 312 312 313 314 314 313 311 309 308 309 308 309 312 312 311 315 320 321 321 321 322 324 323 324 326 327 327 327 327 327 327 327 327 326 325 324 323 325 327 326 326 327 329 329 328 329 330 330 330 330 330 331 331 331 331 329 328 327 326 326 326 326 326 326 327 327 327 327 327 325 322 321 321 322 322 323 323 323 323
311 311 313 312 310 310 309 307 308 310 311 311 309 307 305 306 306 305 306 307 305 307 310 313 313 312 316 321 322 322 324 323 323 324 324 324 326 326 326 326 326 325 321 323 325 325 326 325 324 325 326 327 328 328 329 329 329 331 331 331 331 330 329 328 327 326 326 326 326 326 326 327 327 328 328 328 326 324 323 322 322 323 323 323 323
309 309 311 310 309 309 307 307 306 307 309 310 310 309 306 306 306 306 306 306 306 305 305 306 307 306 310 317 319 318 319 321 322 321 321 323 324 324 324 322 323 323 320 320 320 319 322 321 318 319 322 325 327 327 327 328 329 331 330 329 331 331 330 328 328 328 327 326 326 326 326 326 326 327 327 327 327 326 326 325 324 324 324 324 323
310 310 309 308 309 307 306 308 307 306 307 308 309 309 308 307 307 307 306 306 306 306 305 305 306 307 306 308 311 313 313 315 316 315 314 317 319 320 319 319 320 321 320 320 318 315 315 316 314 315 316 320 324 325 326 327 328 329 329 329 330 330 329 328 328 328 328 328 327 326 325 325 326 326 327 328 328 328 328 327 326 326 325 325 324
314 313 309 307 310 310 310 312 308 306 307 306 307 307 307 308 306 306 307 306 306 306 305 305 306 307 306 305 310 314 313 309 307 308 307 308 313 317 317 317 317 318 318 318 317 316 316 316 315 316 316 318 321 322 325 327 328 328 329 329 328 328 328 327 327 328 328 328 328 327 326 325 326 325 326 327 328 328 328 328 328 327 326 326 325
316 316 311 309 313 312 312 312 308 307 307 306 306 306 307 312 309 306 306 306 306 306 305 305 305 305 305 306 308 310 310 308 307 309 310 308 311 314 315 315 315 315 315 315 315 316 317 318 319 320 320 320 320 323 324 326 327 326 326 327 327 326 325 325 325 326 327 328 328 328 327 326 326 326 326 327 327 327 327 328 328 328 327 327 327
318 318 313 309 312 312 310 309 308 307 308 306 307 305 307 312 310 306 306 306 306 306 305 305 304 304 304 304 307 307 306 308 309 312 313 311 310 308 307 310 313 314 315 316 315 315 316 317 318 318 319 320 320 322 323 324 325 325 324 324 324 324 323 323 324 324 325 326 328 328 328 327 327 326 326 326 326 326 326 326 327 327 327 327 327
319 319 315 309 310 311 310 310 308 308 308 307 308 307 305 309 309 306 306 306 306 306 305 305 304 304 303 303 307 308 302 304 307 307 307 308 310 311 308 308 312 313 314 314 314 315 316 317 318 318 318 318 319 321 322 323 323 323 323 322 321 322 322 322 324 325 325 325 326 327 328 328 328 327 326 326 326 326 326 326 326 326 327 327 327
319 319 316 311 310 311 311 311 309 308 309 307 308 308 306 308 308 306 306 306 306 306 305 305 304 304 304 303 307 309 303 302 304 303 302 303 306 311 312 311 311 312 313 314 314 315 316 316 315 316 316 316 317 320 322 323 321 321 321 321 322 323 321 319 321 323 324 326 326 326 328 328 328 327 327 327 327 326 326 326 326 326 326 326 326
319 319 316 312 312 311 311 312 310 309 309 308 309 308 307 309 308 306 306 305 306 306 305 305 304 304 304 303 306 310 305 302 303 302 302 302 302 306 311 313 313 313 313 313 312 311 312 313 314 315 317 317 318 319 319 320 319 318 317 315 316 316 313 311 312 315 319 324 325 325 325 326 327 327 327 328 328 327 326 326 326 326 326 326 326
318 318 315 313 313 312 312 313 312 310 310 309 309 308 309 311 310 308 307 305 306 307 305 305 305 304 305 303 305 308 305 302 305 304 303 303 303 304 308 310 312 313 314 313 313 310 310 311 311 311 313 314 313 314 314 315 315 314 312 308 307 309 308 306 306 306 309 315 320 323 324 324 324 325 326 327 327 327 327 327 326 326 326 326 326
319 318 315 314 314 313 313 314 313 312 311 310 310 309 309 311 310 311 311 306 307 309 307 306 305 304 305 305 305 306 304 303 305 305 305 305 303 303 305 307 309 311 312 312 313 312 311 312 311 309 308 307 306 307 309 311 312 313 311 308 306 306 305 303 304 304 304 306 310 315 318 320 321 323 324 326 326 327 327 327 327 326 326 326 326
320 319 317 316 316 315 315 315 315 314 312 311 311 309 310 311 310 312 312 307 308 311 310 307 306 305 305 306 307 307 304 304 304 304 307 307 307 307 308 309 310 311 311 311 312 312 312 312 312 311 310 309 308 308 307 308 308 308 308 307 306 306 306 306 307 309 309 309 309 310 311 312 314 318 322 324 325 326 326 326 327 327 327 326 326
320 320 319 318 318 318 317 317 317 316 314 313 312 311 311 311 310 310 310 307 309 312 311 308 308 307 305 305 307 307 304 304 303 304 306 307 307 308 309 309 310 310 310 310 311 311 311 310 310 311 311 311 311 311 310 309 308 307 306 305 305 307 309 310 311 312 313 314 316 317 315 312 309 312 316 320 323 325 325 326 326 326 326 326 326
322 321 320 319 319 319 318 319 318 318 316 315 314 313 312 311 310 309 309 308 308 310 308 307 310 310 307 305 306 306 304 304 303 303 305 305 306 308 308 308 308 309 309 309 309 309 310 309 309 309 310 311 311 311 311 310 310 309 308 307 306 306 307 308 310 312 313 313 314 315 314 311 307 307 308 312 316 320 322 324 325 325 325 326 326
322 322 321 320 320 320 320 320 320 319 319 317 316 314 313 312 311 311 310 309 308 308 307 307 309 309 307 306 306 306 305 304 303 304 306 307 307 306 306 306 307 308 309 310 310 310 310 310 309 309 309 309 309 310 310 310 310 310 310 310 309 308 307 307 308 311 312 312 312 312 311 310 308 306 305 305 307 310 314 318 321 324 324 325 325
320 322 322 321 320 320 320 320 320 320 319 318 317 316 314 313 313 311 311 310 309 308 308 307 307 307 305 304 305 305 304 304 303 304 305 305 304 303 303 305 306 306 306 307 308 309 310 310 309 308 308 309 310 310 310 309 310 310 310 310 310 310 309 307 305 305 307 307 308 309 309 309 308 306 304 303 303 304 306 310 315 319 321 322 323
322 321 322 321 320 321 321 321 320 320 319 319 318 317 315 314 314 313 312 311 310 309 309 308 307 306 305 304 304 304 303 304 303 303 303 302 301 301 302 302 303 303 303 303 304 306 307 308 308 308 309 309 309 309 309 310 310 310 310 309 309 310 309 308 309 309 310 311 312 312 312 312 312 309 306 305 303 303 304 305 309 313 316 319 320
323 323 322 322 321 321 321 321 321 320 320 319 318 317 316 316 315 314 313 312 311 310 309 308 307 306 305 304 303 303 303 303 303 303 302 301 300 300 300 300 301 303 304 304 304 306 307 307 307 308 308 308 308 309 309 310 310 310 309 310 310 310 311 312 313 313 312 312 311 311 311 312 312 310 306 305 304 303 304 304 305 309 312 315 317
323 323 323 322 322 321 321 321 321 321 320 319 318 317 317 316 315 315 313 312 312 311 310 308 307 306 305 304 303 303 303 303 303 303 301 300 299 298 298 298 299 300 301 303 304 306 306 307 307 307 308 308 308 308 308 309 309 309 310 310 312 311 311 310 309 307 306 306 305 306 307 309 310 310 309 307 306 304 304 304 305 308 313 316 317
323 323 323 322 322 321 321 321 321 321 320 319 318 318 317 316 315 315 314 313 312 310 310 308 307 306 305 304 303 303 303 303 303 303 302 301 299 299 298 297 296 296 297 299 302 304 306 306 306 306 307 307 308 308 308 309 309 309 310 310 310 310 309 308 308 306 306 306 306 306 308 309 311 313 314 314 312 310 308 306 306 307 312 316 317
321 322 322 322 322 322 322 321 321 320 320 319 318 318 317 316 315 315 314 313 312 311 309 308 307 306 305 303 303 303 303 303 303 304 303 303 301 300 299 297 296 296 296 297 299 301 303 304 305 305 306 306 307 307 307 308 308 308 308 308 308 308 309 309 309 308 308 308 309 310 311 312 313 314 315 316 316 315 315 313 310 307 307 309 312
318 319 319 320 321 322 322 320 320 319 318 318 318 317 316 315 315 314 314 313 312 311 309 308 306 305 304 303 303 303 303 303 303 303 303 303 302 301 300 299 297 296 296 296 296 297 298 300 301 303 304 305 305 306 306 307 307 307 308 308 308 308 308 309 309 309 309 309 310 311 312 312 313 314 315 316 317 317 317 317 316 314 311 309 308
317 317 317 317 316 319 320 320 320 319 318 318 317 316 316 315 314 314 313 313 312 311 309 307 305 304 303 303 303 303 303 303 302 302 301 300 301 300 300 299 297 297 296 296 296 296 296 296 297 299 301 302 304 305 306 306 307 307 307 307 307 307 308 308 308 308 308 308 309 309 308 308 309 311 312 313 315 317 317 318 318 318 317 315 311
316 317 317 316 313 313 316 318 319 319 318 317 316 316 316 315 314 313 313 312 312 310 308 307 305 304 303 303 303 303 302 302 300 299 298 298 298 298 298 297 296 296 296 296 296 296 296 297 297 297 298 298 300 301 303 304 306 306 306 306 306 306 306 306 306 307 307 307 308 308 308 308 308 308 308 309 309 310 313 316 318 318 318 317 314
316 316 316 316 315 314 315 316 316 317 317 317 317 316 316 314 314 313 312 311 310 309 308 307 306 305 304 303 303 303 301 299 297 297 297 297 297 297 297 296 296 297 297 297 297 297 296 297 297 297 297 297 297 298 299 300 302 303 304 304 304 305 305 305 305 305 306 306 306 306 307 307 306 307 307 307 306 305 305 309 315 316 316 314 312
315 315 315 315 315 316 315 314 315 317 317 317 317 316 315 314 313 313 312 310 309 309 307 306 305 304 304 303 303 302 300 298 296 296 296 296 295 295 295 296 296 296 297 298 298 297 298 298 298 299 299 299 299 299 299 299 300 300 301 302 302 303 303 303 303 303 303 303 303 304 304 305 305 306 306 306 307 308 306 305 310 314 314 313 312
314 314 315 315 315 315 314 313 315 317 316 316 316 316 315 314 313 312 311 310 309 308 306 304 304 303 303 302 301 299 298 297 296 295 295 295 295 295 295 296 296 296 296 297 297 297 298 298 298 299 299 299 299 299 299 299 300 300 300 300 300 301 301 301 302 302 302 302 303 303 304 304 305 306 306 305 306 308 308 308 309 312 313 314 314
313 313 314 315 315 315 314 314 315 316 315 315 315 315 314 313 312 311 309 308 307 305 304 303 302 302 301 300 299 298 297 296 295 294 294 295 295 295 296 296 296 296 296 297 297 297 297 297 297 297 297 297 298 298 298 299 299 299 300 299 299 299 300 300 301 301 302 302 303 303 304 304 305 305 306 307 307 308 309 310 311 312 313 314 314
313 313 313 313 314 314 314 314 315 315 315 314 314 313 312 311 310 309 306 304 303 302 301 301 301 300 300 299 298 297 296 295 295 295 295 296 296 296 296 295 295 296 296 296 296 297 297 297 297 297 297 297 297 297 297 297 298 298 299 299 299 298 299 299 299 300 300 301 302 303 303 304 305 305 306 307 308 308 310 310 311 311 312 313 314
313 312 312 313 313 314 314 314 314 314 314 314 312 310 309 308 308 307 305 303 302 301 300 299 299 299 299 298 297 296 296 297 297 297 296 296 296 296 295 295 295 295 295 295 295 296 296 296 297 297 297 297 297 297 297 297 297 297 297 298 298 298 298 298 298 299 299 300 301 302 303 304 304 305 306 307 308 308 309 310 311 311 312 313 313
Wind_Speed
10 9 10 12 11 11 12 9 8 10 11 12 12 9 7 8 8 9 7 6 8 9 10 10 10 10 10 9 9 9 9 9 9 7 7 7 7 7 5 4 4 4 5 5 5 4 3 4 4 4 4 5 4 4 4 4 4 3 3 3 4 3 3 3 3 2 2 1 0 0 1 2 3 4 6 7 8 10 11 12 12 12 12 12 11
11 11 13 14 12 11 11 10 9 11 12 12 12 11 9 9 9 8 6 7 7 8 10 10 11 11 10 10 10 9 9 10 10 8 7 7 7 8 6 4 4 4 4 5 6 5 4 4 5 5 5 5 5 5 4 5 5 5 5 5 4 4 4 4 4 3 3 3 2 1 1 1 2 3 4 5 6 8 9 10 11 11 11 11 10
12 11 11 13 13 10 10 11 10 11 12 12 13 12 11 10 10 8 7 8 9 9 10 10 12 13 12 11 10 10 10 10 10 9 9 8 7 8 7 6 4 5 4 4 4 5 5 5 5 5 5 5 5 5 5 5 6 6 6 6 6 6 5 5 5 4 4 4 4 3 3 2 1 1 2 3 4 5 7 8 9 10 10 10 10
13 12 11 11 12 10 10 11 10 11 11 11 11 12 11 11 12 11 10 11 10 10 9 10 12 14 13 12 11 11 11 10 10 10 10 9 8 9 8 8 6 6 5 4 3 3 4 6 6 6 6 5 5 6 6 6 6 6 7 7 7 7 7 6 6 6 6 5 5 5 4 4 3 2 2 2 2 3 5 6 7 9 9 9 9
13 14 13 12 12 11 11 10 10 11 11 11 11 13 12 10 11 12 12 14 15 13 12 11 11 13 14 13 12 12 11 11 12 11 11 10 9 9 9 9 9 8 6 6 4 3 3 4 5 5 5 5 5 5 5 6 6 6 6 7 8 8 8 8 7 7 7 7 6 6 6 5 5 4 3 3 2 2 2 4 5 7 7 8 8
12 13 14 13 12 12 12 10 10 11 13 13 13 13 13 10 8 9 11 13 15 15 15 14 12 12 14 13 12 12 13 12 12 12 12 11 10 9 9 9 10 10 8 8 7 5 4 3 3 4 4 4 4 4 4 5 5 6 6 7 7 8 9 9 9 9 9 9 8 7 6 6 6 6 5 5 3 3 2 2 3 4 6 7 7
12 13 14 13 12 12 12 11 9 10 11 13 14 14 13 12 9 9 10 9 9 9 9 14 13 11 14 15 14 12 13 13 13 13 12 12 11 10 10 10 10 10 9 9 8 7 6 5 4 4 4 4 4 4 4 4 4 5 5 6 7 7 8 9 9 9 9 10 9 9 8 7 8 7 7 7 6 4 3 2 2 3 4 5 6
12 13 13 12 11 12 13 11 10 10 10 11 13 13 14 14 12 11 11 10 10 8 5 9 12 11 13 17 17 15 13 13 13 13 12 12 12 12 11 11 11 10 10 9 9 9 7 6 6 5 4 4 4 4 4 4 4 5 5 6 6 6 7 7 8 8 9 9 10 10 10 10 9 9 9 8 7 6 5 4 3 2 2 3 4
8 10 10 10 10 12 13 13 13 12 11 11 11 12 14 16 14 14 13 13 13 12 9 9 10 10 12 13 14 15 15 13 13 13 13 13 13 13 12 12 12 12 12 11 10 10 9 8 7 7 6 6 5 4 4 4 4 5 5 5 5 4 5 5 6 6 7 8 9 10 11 11 11 10 10 9 9 8 7 5 4 3 2 2 2
7 8 8 8 9 11 12 12 12 11 10 11 11 12 14 15 15 15 15 16 16 14 12 11 10 11 12 10 10 12 13 13 14 13 13 13 13 13 13 12 12 12 13 12 11 11 13 12 10 10 8 7 7 6 5 4 4 5 5 5 4 4 3 2 3 4 5 6 7 9 10 11 12 12 11 10 9 8 8 7 6 5 4 3 2
7 7 7 7 7 9 9 9 11 10 8 10 12 12 13 14 16 16 15 17 16 12 12 13 11 11 10 9 10 10 11 11 11 12 13 13 13 14 13 13 12 12 12 12 12 12 13 14 13 13 11 9 8 8 7 7 6 5 4 5 4 4 3 2 1 2 3 5 6 8 9 11 11 12 12 11 10 9 8 7 7 6 5 5 3
8 6 6 5 5 7 8 8 9 8 7 9 11 11 12 14 16 16 15 17 15 12 13 15 14 12 10 10 11 11 11 10 9 10 11 12 13 13 13 13 13 13 13 13 13 13 13 14 14 13 12 10 10 8 9 8 7 6 5 5 4 4 3 2 1 1 2 3 5 7 8 9 10 11 11 11 11 10 9 8 7 7 6 6 5
7 5 4 3 3 5 7 6 5 5 6 7 9 10 11 13 14 15 16 18 18 16 14 13 14 13 11 11 10 11 12 12 11 10 10 11 12 13 13 13 12 12 12 13 13 13 13 14 13 13 11 12 13 12 11 10 9 8 7 6 5 4 3 3 2 1 1 2 4 7 8 8 9 10 10 10 11 11 11 9 8 7 7 6 6
4 3 1 1 2 3 4 5 2 2 4 4 6 9 10 10 11 13 15 17 19 21 18 15 15 12 12 13 12 12 13 13 15 14 12 11 12 12 13 13 13 12 12 12 13 13 13 14 13 13 12 12 15 16 13 12 11 10 9 8 6 6 6 5 4 2 2 2 3 6 8 8 9 10 9 8 9 10 11 11 10 8 7 6 6
2 1 2 1 1 2 2 4 3 2 2 1 1 3 4 6 9 11 12 14 17 19 19 17 17 14 13 13 12 12 11 11 12 12 13 13 13 12 12 13 13 13 13 13 13 13 13 14 13 13 13 13 14 15 15 15 14 11 10 10 9 9 9 8 7 6 5 4 4 5 8 8 10 11 10 8 7 8 9 10 11 10 9 8 7
2 3 2 0 0 1 2 2 3 3 3 3 3 3 2 2 3 5 7 10 12 12 13 14 16 16 12 10 10 10 8 7 7 8 11 14 14 13 11 12 14 13 13 13 12 13 14 14 14 13 14 14 14 14 15 15 15 13 11 11 12 11 11 10 10 10 9 8 7 7 8 8 9 12 12 10 8 8 8 8 9 10 11 10 9
4 3 2 1 1 1 1 2 3 2 2 3 2 3 4 4 4 2 2 5 5 5 7 11 14 15 12 9 9 7 8 7 5 4 7 10 13 14 13 13 14 13 12 13 12 12 13 13 15 15 15 15 15 15 16 15 16 17 15 15 15 14 13 13 12 13 13 11 10 9 9 8 9 10 13 13 11 10 9 8 8 9 10 11 11
4 3 3 3 2 2 2 2 2 2 2 3 2 3 3 3 4 5 3 0 2 1 2 7 10 12 11 11 10 9 9 8 5 5 6 7 10 12 14 15 15 14 12 12 13 14 14 14 14 14 15 16 16 16 17 16 16 17 17 16 16 16 16 15 15 14 15 14 13 12 10 10 9 9 11 14 14 13 12 10 9 9 9 10 11
4 3 3 4 3 2 3 3 3 3 3 4 3 3 2 1 2 0 1 1 1 2 1 1 3 4 5 9 10 9 11 8 6 6 6 7 8 9 11 13 14 16 14 12 13 14 14 14 13 12 14 15 15 16 16 16 16 16 18 18 17 16 16 16 16 16 16 16 16 15 14 13 11 10 10 12 14 15 14 13 12 11 10 10 10
3 4 4 3 4 4 4 5 5 5 5 5 4 4 3 2 2 2 2 2 1 1 2 1 2 3 2 4 6 3 6 8 6 6 6 6 8 8 9 10 11 14 15 15 16 15 13 11 12 13 13 13 13 13 13 14 15 16 18 19 18 17 17 17 17 18 18 18 19 18 17 15 14 12 11 11 13 14 15 15 14 13 12 11 11
3 4 4 3 4 6 5 5 5 5 4 4 4 5 5 5 4 3 3 2 2 3 2 0 1 1 2 3 4 4 2 4 4 5 7 7 7 8 9 10 11 12 14 15 15 15 16 16 16 17 16 15 14 13 13 15 15 15 16 15 17 18 18 19 20 20 21 21 21 21 20 18 17 16 14 12 12 13 14 15 15 15 14 13 12
3 3 4 3 4 5 5 6 6 5 4 5 6 6 7 7 6 6 5 4 4 3 2 1 0 1 1 2 2 3 2 3 3 4 5 6 7 8 8 9 10 12 14 15 14 15 18 18 18 19 20 19 17 16 17 17 16 16 15 14 16 17 17 19 21 22 23 23 23 23 22 21 20 19 19 17 15 14 13 13 14 15 15 14 13
2 3 3 2 3 4 5 6 6 6 6 6 6 6 7 8 8 8 8 7 7 6 5 3 2 2 2 2 1 1 2 1 2 4 4 4 6 7 7 8 9 11 13 15 16 18 20 21 21 20 21 22 21 19 18 18 18 18 17 16 18 18 17 17 18 20 22 24 25 25 24 24 23 21 21 21 19 17 16 14 13 14 14 14 13
2 2 1 1 2 3 5 5 6 6 6 6 5 5 6 6 7 7 7 8 8 7 7 6 5 4 2 2 2 1 1 2 4 7 6 5 5 6 6 7 8 8 10 12 14 15 16 19 21 21 21 22 21 19 17 16 17 19 18 18 21 22 22 21 20 20 20 21 24 26 26 26 25 24 23 23 22 21 20 18 16 15 15 14 13
3 3 2 1 1 2 3 3 4 5 5 6 5 4 4 5 5 6 6 7 7 7 7 7 6 5 4 4 4 2 0 1 3 4 5 5 4 5 6 6 7 8 8 10 12 12 11 11 13 15 17 18 17 17 16 13 13 16 17 17 20 21 22 24 25 24 23 22 22 24 27 27 27 27 26 25 24 24 23 22 21 19 17 16 15
6 5 4 2 2 2 1 2 4 5 4 5 5 5 4 3 4 5 6 6 7 8 7 7 7 6 5 4 3 1 1 3 3 2 3 3 2 4 6 6 7 9 8 8 8 8 9 8 7 8 10 12 12 13 15 14 14 17 17 17 17 17 17 19 21 23 24 24 24 24 26 28 29 29 28 27 27 27 26 25 25 24 22 20 18
7 7 6 4 4 4 4 4 5 5 4 5 4 5 3 1 3 4 5 6 7 7 7 8 8 7 6 5 4 3 3 3 3 2 2 4 4 4 5 5 7 8 7 7 6 6 6 6 6 6 7 9 10 11 15 16 17 19 19 19 18 17 16 16 17 20 22 24 26 26 26 27 29 30 30 30 29 30 29 27 28 27 26 24 23
8 9 8 6 5 6 6 6 7 6 6 5 4 5 4 2 4 5 5 6 7 7 8 8 8 7 6 5 4 4 5 4 3 3 2 3 5 6 6 6 6 7 7 6 5 5 4 3 4 5 5 7 7 9 12 13 15 18 19 19 17 16 18 18 17 18 19 21 24 26 27 28 28 29 31 31 31 32 31 30 29 29 29 28 27
10 12 10 8 7 8 7 8 8 7 7 7 5 5 5 3 5 6 6 7 7 7 7 8 8 7 7 6 4 4 6 5 4 4 4 4 3 3 5 6 6 7 7 7 7 6 5 5 5 5 5 6 6 8 10 11 13 17 17 17 15 15 19 21 20 20 19 19 20 22 25 26 28 29 30 31 32 33 34 34 32 31 32 31 30
12 13 12 10 10 10 8 9 10 9 9 8 7 7 5 4 5 6 6 7 7 6 6 7 7 7 6 6 5 3 5 6 5 4 5 5 4 2 3 5 6 6 7 9 10 9 9 8 7 6 7 6 6 8 10 11 15 20 21 21 20 20 23 25 25 25 23 20 20 21 23 24 25 27 30 31 33 33 34 35 35 34 34 34 34
13 15 14 12 12 12 10 11 11 10 11 9 9 9 6 5 6 6 6 6 5 6 6 5 6 6 6 6 5 3 6 8 7 7 7 7 5 4 3 4 6 7 8 9 12 12 11 11 11 11 12 13 13 14 15 14 17 21 23 24 23 22 23 24 25 26 25 24 24 23 23 23 23 25 27 30 32 33 33 34 35 36 36 37 36
15 16 16 13 14 14 12 12 12 12 12 11 11 11 8 8 7 5 7 7 4 5 7 6 6 6 6 6 6 5 7 8 7 8 10 10 9 9 7 5 5 7 8 9 12 13 12 13 15 15 15 16 17 17 17 17 17 20 22 23 23 22 22 23 22 22 23 25 27 28 27 26 25 25 25 27 29 31 32 33 34 35 36 37 37
15 16 17 16 15 15 14 14 14 14 15 14 13 12 10 10 8 7 9 9 5 5 7 8 8 7 5 4 5 7 9 9 8 8 7 9 11 11 10 9 7 8 8 9 12 14 14 13 14 15 15 17 17 16 16 17 18 20 21 21 21 21 21 20 19 19 19 20 23 26 28 29 29 28 27 27 28 29 30 32 33 35 35 36 37
16 17 17 17 17 17 16 16 16 16 16 15 15 14 12 12 11 11 12 11 6 7 9 9 8 9 9 5 4 7 9 10 10 9 7 7 8 8 8 9 9 9 10 10 12 14 15 15 15 15 16 15 16 15 15 17 19 20 21 20 19 18 18 18 18 17 17 18 20 23 26 29 30 30 30 30 30 30 30 31 32 34 35 36 37
17 18 18 18 18 19 18 18 18 17 17 17 17 17 15 14 14 15 15 13 10 10 12 10 7 9 11 9 7 9 12 12 12 11 9 9 8 7 8 9 11 12 12 13 14 16 17 18 17 15 15 14 15 15 15 17 18 19 21 20 19 18 17 17 17 16 17 19 22 24 27 28 29 29 30 32 33 33 33 33 33 33 34 35 37
19 19 19 19 19 20 20 19 19 19 18 18 18 18 17 16 16 17 17 16 14 14 14 11 9 10 12 11 9 10 11 12 13 12 9 8 8 9 10 11 11 12 12 13 15 16 17 19 19 18 17 18 18 17 17 17 17 17 18 18 18 19 18 17 17 16 17 20 23 25 27 28 29 29 28 30 33 35 35 35 35 34 34 35 36
23 22 21 21 21 21 21 21 20 20 19 18 19 20 19 18 18 18 19 18 18 17 15 14 13 13 14 13 11 12 13 13 13 11 9 10 12 12 12 12 11 12 13 14 15 15 17 19 21 21 20 19 19 18 17 17 17 17 17 16 16 17 19 20 20 19 20 22 24 26 27 27 29 30 30 29 31 34 36 36 36 36 35 35 36
23 23 22 23 23 23 23 22 21 20 20 19 20 21 20 20 21 21 20 20 19 18 17 16 16 16 16 15 14 14 15 14 14 14 14 15 16 16 15 15 15 15 16 17 17 17 18 20 21 21 20 19 19 20 18 17 17 17 17 17 17 17 19 20 19 15 14 16 19 22 23 24 27 30 31 30 30 31 33 35 36 37 37 37 36
23 22 22 23 23 24 24 23 23 23 22 22 23 23 22 22 23 22 20 20 19 17 17 16 16 17 17 16 16 16 16 15 15 15 16 17 17 17 17 17 17 17 18 18 18 18 18 19 19 19 19 18 18 19 18 16 16 17 18 18 18 16 14 14 14 15 16 18 20 22 23 25 28 31 32 32 31 30 30 32 34 36 37 38 38
21 20 21 20 21 22 23 24 25 25 24 25 24 23 23 23 24 23 21 21 19 17 17 17 17 18 18 17 17 17 17 17 17 16 17 18 18 18 18 17 18 18 19 19 19 19 19 19 19 19 19 18 18 18 17 16 16 16 15 15 15 15 15 18 22 24 25 25 25 25 24 25 26 28 30 31 31 31 31 31 33 36 37 36 37
20 19 20 20 20 21 22 23 24 24 26 27 24 23 23 25 26 25 23 22 20 17 18 18 17 18 19 18 18 19 19 20 20 19 20 20 20 20 20 20 20 20 20 20 19 19 19 19 19 19 19 19 18 17 16 15 16 16 15 16 18 20 21 23 25 25 24 24 24 23 22 22 22 23 24 26 28 28 28 29 31 34 37 37 36
18 17 18 20 21 22 21 21 23 26 28 26 24 26 28 27 26 26 24 23 20 17 17 17 16 18 18 18 19 21 22 22 22 23 24 23 23 24 24 23 22 22 22 22 21 21 20 20 20 19 20 20 19 19 19 18 17 18 19 19 20 21 20 21 22 21 19 19 19 20 19 18 19 20 21 22 24 25 26 28 29 31 34 36 37
15 15 15 17 18 20 21 22 25 29 29 25 25 30 33 32 30 27 26 25 22 20 20 19 18 18 17 17 18 21 23 24 24 25 26 26 26 26 27 26 25 24 24 24 25 24 24 25 24 22 21 22 21 20 20 20 19 19 19 19 19 19 18 19 20 18 16 15 16 18 19 18 18 19 21 20 20 22 26 28 28 27 28 30 33
15 15 16 17 17 17 19 22 26 30 31 28 28 32 35 36 34 29 28 28 26 25 24 23 21 19 18 18 19 21 23 24 24 25 26 27 28 29 29 29 29 28 27 27 27 26 27 28 29 28 26 25 23 21 19 19 19 19 19 19 19 19 19 20 21 20 17 16 17 22 25 24 21 22 24 23 22 22 23 26 28 28 28 29 30
16 17 18 19 19 17 18 22 25 27 28 28 29 32 35 37 36 32 30 28 27 26 24 23 22 22 21 21 22 23 23 24 25 25 25 26 26 28 29 31 32 32 31 30 29 28 28 29 31 32 31 30 30 28 24 22 21 20 19 19 20 21 22 22 23 22 19 16 17 21 25 25 23 24 27 28 28 28 26 26 28 30 32 33 33
17 18 20 20 20 19 18 21 22 22 25 28 31 32 32 34 36 33 30 28 27 25 24 24 24 24 24 23 23 23 23 22 23 23 23 23 24 26 27 29 30 31 31 31 31 31 31 32 33 34 33 32 33 33 31 29 29 27 25 24 24 24 25 25 24 24 23 22 22 23 27 28 25 26 29 29 29 31 30 28 29 31 33 34 34
17 18 19 21 22 21 21 22 20 21 26 30 32 31 29 31 36 34 30 30 29 25 24 25 25 25 24 24 23 23 23 22 22 24 25 25 27 28 29 30 30 30 29 29 30 31 30 29 29 28 27 25 25 26 27 28 31 32 31 32 32 32 33 33 32 30 29 28 27 27 31 31 25 26 30 28 25 28 29 28 29 30 32 33 32
17 17 18 19 20 20 21 21 20 24 29 30 32 32 29 29 32 32 31 31 28 25 24 23 23 23 23 23 22 22 22 22 24 27 28 27 28 30 30 31 31 30 30 29 29 30 30 29 27 27 27 27 28 30 30 30 31 32 33 36 36 36 37 37 34 31 28 26 24 25 29 29 24 24 28 27 25 27 27 26 28 30 31 32 32
16 17 18 18 18 19 20 20 22 27 30 31 32 31 28 28 29 29 29 27 23 19 19 19 19 19 19 21 22 22 23 23 26 29 29 27 28 29 29 30 30 30 30 29 29 30 30 32 32 32 32 32 35 37 38 38 37 35 35 39 38 33 33 34 32 29 27 24 21 21 25 27 24 23 26 25 24 25 25 23 26 30 30 31 32
16 17 18 18 18 19 20 21 24 29 30 30 30 28 27 28 28 27 24 19 15 13 12 14 15 14 15 18 22 24 25 26 28 30 30 29 29 29 29 29 29 28 28 29 29 29 28 29 30 30 30 31 32 34 35 37 40 40 42 44 41 32 29 31 30 29 28 26 22 21 25 27 23 22 24 24 23 24 22 22 26 30 30 30 32
16 16 16 17 17 19 20 22 24 27 28 28 28 26 27 28 27 26 23 18 15 14 13 12 12 11 13 17 21 25 25 24 25 29 31 31 31 30 30 29 27 26 26 27 27 26 26 26 26 26 26 27 28 28 27 27 28 33 38 44 45 41 35 32 30 29 30 27 20 17 22 25 23 22 23 22 22 22 19 19 24 27 27 28 32
Wind_Direction
211 212 219 223 221 224 229 226 221 218 208 203 208 216 206 201 221 228 215 212 220 220 221 218 220 223 213 213 223 218 215 212 205 200 201 214 228 232 247 267 259 243 228 212 198 177 171 176 169 170 173 180 191 198 201 202 206 196 186 182 177 174 175 183 188 186 186 186 199 7 12 18 33 39 45 48 51 54 55 57 59 62 65 66 66
216 209 217 225 221 225 232 225 226 228 221 220 218 217 213 210 223 229 216 204 214 227 223 215 220 227 223 216 220 219 217 217 208 203 207 208 224 234 235 258 280 267 250 236 216 187 168 169 164 161 165 172 174 181 188 195 206 204 202 201 193 191 189 188 189 193 199 202 212 228 282 319 4 22 34 41 45 49 50 53 55 57 61 65 65
226 220 223 227 223 226 236 225 221 230 230 229 228 226 222 219 218 212 217 210 198 216 230 222 218 222 223 219 215 215 216 217 212 208 209 206 223 241 237 243 270 276 265 259 240 206 178 166 164 166 166 169 169 174 180 187 199 204 208 210 210 209 202 203 202 202 207 212 217 217 232 255 281 321 4 23 35 43 47 49 51 52 55 61 64
233 234 232 231 230 230 238 235 229 234 238 238 237 235 232 232 226 210 213 220 200 196 220 226 222 221 222 218 214 216 216 214 211 209 212 207 214 236 248 252 253 259 265 259 249 219 187 172 168 173 171 169 170 174 180 187 194 202 209 211 219 225 221 217 218 221 219 219 222 220 223 235 251 263 288 328 12 30 40 46 48 50 50 54 60
235 240 242 241 238 238 244 245 243 246 252 253 245 241 237 237 239 229 221 223 218 212 217 217 219 224 225 220 214 215 216 216 214 210 212 211 209 224 248 264 257 247 250 250 243 225 205 187 181 186 182 174 174 177 185 192 195 204 211 214 221 230 234 230 227 230 231 231 230 228 228 232 242 251 260 273 299 340 21 38 44 49 47 48 53
239 243 249 250 242 241 246 249 250 254 260 259 253 246 240 237 238 240 237 229 229 234 226 209 206 222 227 226 219 215 215 216 217 215 214 214 212 215 229 254 263 256 246 240 238 228 225 222 217 218 202 185 180 183 187 193 200 208 212 216 221 227 235 238 235 233 235 239 240 237 234 234 241 247 252 259 268 286 320 1 29 43 44 44 44
246 250 252 252 247 245 246 249 251 252 258 260 256 248 239 237 228 226 240 230 224 238 217 197 199 215 223 218 214 215 220 220 219 220 220 219 218 217 216 225 242 254 250 239 234 231 231 234 238 246 232 207 195 189 186 190 197 205 212 217 219 223 230 238 241 239 237 238 243 244 240 238 239 243 249 254 258 266 283 306 340 18 36 39 37
255 261 259 255 252 253 251 248 249 247 251 254 253 246 237 236 227 217 224 217 217 229 209 196 203 212 218 213 210 211 215 222 224 223 225 224 223 224 222 220 221 231 240 240 241 238 233 235 238 240 245 242 224 205 192 194 195 195 202 208 212 217 222 232 243 248 245 241 243 247 245 242 240 240 245 250 255 259 267 279 297 321 1 28 30
260 265 264 257 255 259 258 254 252 249 252 254 251 247 238 233 227 217 218 216 214 216 217 215 214 220 220 214 217 216 211 219 226 225 227 227 227 226 226 226 221 221 226 231 241 246 241 242 244 238 238 246 248 241 220 202 197 197 196 194 197 205 213 225 241 252 255 251 247 246 245 243 241 240 241 246 251 255 259 266 275 285 301 334 15
255 265 269 265 258 255 256 256 253 247 252 256 249 244 238 234 232 223 221 224 215 203 210 217 216 226 225 218 230 233 224 223 223 226 230 230 230 230 228 229 225 223 225 223 227 242 250 250 245 241 239 239 244 251 250 237 220 210 202 193 185 182 190 212 238 255 262 262 255 248 245 243 241 240 240 241 245 251 257 261 266 271 279 286 311
252 259 267 272 271 266 262 260 258 241 230 242 242 239 234 233 236 230 225 232 226 205 206 211 209 216 220 221 231 237 242 241 231 228 232 232 231 230 231 231 227 224 226 226 222 228 245 252 244 239 244 243 239 242 247 251 245 235 219 211 199 174 163 174 220 267 277 280 273 257 248 245 244 242 241 241 240 245 252 259 264 267 272 277 287
246 243 250 260 271 283 280 271 270 253 223 226 232 234 232 230 234 233 233 239 239 226 215 215 214 214 216 222 224 224 232 243 245 237 235 238 235 230 230 231 230 227 227 228 228 224 230 243 243 242 249 246 241 246 249 246 241 243 241 237 231 196 175 186 219 303 311 298 285 271 256 247 247 247 245 245 243 242 246 254 261 267 272 275 281
242 240 253 273 272 287 293 284 279 272 256 236 228 236 236 232 235 237 239 242 244 239 227 221 225 227 230 235 237 235 234 240 250 250 243 240 237 234 231 230 231 232 231 230 232 230 228 234 238 243 250 250 253 259 256 249 241 238 240 245 254 248 228 216 220 263 317 313 293 281 268 250 245 250 251 249 247 244 243 248 255 263 271 275 279
245 232 232 326 289 285 301 297 289 285 278 252 236 248 241 231 238 239 238 242 248 246 239 237 239 236 238 245 252 256 254 253 255 259 255 242 235 237 238 236 234 233 234 234 234 234 233 234 234 236 235 241 258 265 258 251 246 241 236 234 243 257 262 257 250 243 256 288 294 285 278 262 249 250 254 254 250 246 244 245 249 254 261 269 274
317 13 56 352 296 306 317 319 341 20 339 304 263 268 250 234 233 230 231 239 248 249 246 248 246 241 241 249 255 258 259 260 262 267 263 251 239 233 239 241 239 238 238 238 239 237 236 236 235 236 233 231 247 262 265 258 251 243 233 231 233 240 253 262 264 260 256 267 279 285 286 275 257 247 248 250 247 245 244 244 246 248 251 256 262
55 57 46 233 95 340 321 339 354 9 10 9 9 9 360 299 228 205 224 237 242 245 247 250 248 245 243 242 242 246 251 255 270 277 265 259 250 239 244 241 231 234 239 238 240 238 236 237 235 236 239 236 235 243 257 262 259 250 235 231 233 233 239 247 255 261 263 263 266 275 285 282 265 248 243 242 242 241 240 241 244 247 248 249 253
89 89 77 50 56 43 359 358 353 356 27 30 7 16 25 10 6 357 244 228 223 231 244 247 243 239 235 231 232 238 246 245 253 277 267 261 256 251 258 251 234 231 232 232 240 243 242 243 240 238 239 240 239 237 242 249 257 260 253 239 232 231 236 239 244 254 260 263 263 267 276 282 273 255 244 241 241 241 239 240 243 248 249 249 249
96 100 106 90 46 47 60 20 1 14 44 51 42 39 42 28 9 356 352 233 196 174 215 230 236 233 223 222 227 226 233 238 232 256 275 267 257 257 260 260 257 250 233 225 233 235 236 238 240 243 244 243 245 244 244 242 245 255 258 248 236 232 235 238 242 247 255 261 262 262 267 273 271 261 250 245 244 245 245 247 247 249 253 253 251
99 94 96 96 80 69 74 58 38 39 48 53 59 63 58 76 106 86 15 33 344 10 46 206 256 268 232 233 245 228 212 216 221 235 266 272 261 261 260 260 261 254 243 241 244 238 233 234 238 246 250 251 253 253 252 251 246 248 253 255 251 242 238 239 242 245 250 254 257 257 259 263 264 262 256 250 248 247 249 252 253 252 254 257 258
94 88 82 83 91 85 76 72 59 45 46 46 53 68 73 76 97 137 130 112 108 42 17 10 11 358 331 284 297 288 203 208 223 232 246 259 260 260 256 256 256 255 257 257 255 252 250 248 248 252 251 250 256 258 258 256 252 248 250 257 262 256 248 243 242 245 247 249 251 253 253 253 254 257 259 256 252 250 250 254 256 256 256 257 260
103 104 101 89 86 85 78 80 77 67 58 49 48 58 65 71 72 82 90 89 127 129 124 23 335 315 353 338 327 339 280 240 248 259 264 268 270 263 254 252 254 262 271 269 260 256 257 259 261 266 265 255 251 254 259 259 253 247 246 252 261 260 255 250 246 244 245 246 248 249 249 248 248 251 254 254 253 252 252 254 257 258 258 257 258
113 110 109 94 74 73 66 62 68 72 67 51 46 48 56 66 70 74 75 64 62 86 119 138 280 222 100 47 3 344 318 295 301 294 289 292 288 281 279 278 272 268 271 269 265 261 261 266 272 274 274 268 261 258 262 263 257 253 252 252 258 261 258 253 250 246 244 244 245 245 246 245 243 245 248 250 251 252 254 256 257 258 258 259 258
132 117 122 91 57 52 44 42 45 48 49 45 40 40 48 58 63 68 70 70 68 67 73 72 56 72 103 106 96 258 207 238 281 260 270 302 299 290 290 293 292 283 276 269 264 261 260 265 271 273 274 274 271 269 271 269 260 258 262 258 255 257 256 254 255 254 249 245 243 243 243 243 242 241 243 248 250 251 252 253 254 257 260 261 261
191 161 169 39 33 22 27 33 32 34 35 33 33 34 41 49 54 57 57 59 62 62 64 64 64 65 72 118 105 359 208 200 240 245 254 269 280 289 284 284 289 289 290 289 285 280 270 265 266 267 269 271 270 271 273 269 259 257 262 262 256 255 254 254 256 258 258 253 247 243 242 242 242 240 241 244 247 249 252 251 249 252 257 259 261
204 206 241 297 307 353 29 31 13 21 21 17 19 18 30 41 37 39 41 41 45 46 48 50 54 57 55 77 90 69 336 273 256 250 265 262 262 290 292 287 285 281 285 286 288 294 293 286 275 265 263 265 269 273 271 268 264 258 256 256 258 258 257 256 257 257 258 258 253 248 244 243 242 241 241 241 243 247 250 250 248 249 252 254 255
202 213 245 259 224 268 297 291 334 1 5 4 2 360 26 44 16 23 30 26 30 31 29 31 33 36 38 49 70 75 6 357 8 12 327 310 280 278 283 292 292 286 286 282 275 278 281 286 278 257 254 256 261 270 268 264 264 265 262 261 264 266 262 259 258 257 255 254 253 250 247 245 244 243 242 241 241 243 246 248 247 248 250 250 250
203 213 246 262 233 252 273 286 313 330 336 347 349 348 17 48 340 1 19 19 21 22 23 25 24 25 25 29 27 358 357 14 17 25 343 318 309 295 295 309 306 297 296 290 284 278 268 266 266 257 254 256 255 259 265 266 266 269 273 272 271 274 273 268 262 258 255 252 252 252 249 246 245 245 244 244 243 243 245 246 246 248 250 250 248
205 211 242 268 255 260 270 277 297 309 313 325 328 331 343 326 321 338 350 360 8 13 18 18 19 23 21 28 35 358 356 18 10 346 330 325 329 327 326 330 319 311 311 307 300 297 292 287 277 264 256 262 261 254 256 264 269 272 275 275 273 275 273 270 265 261 258 255 253 253 252 249 247 246 245 245 244 244 245 246 247 248 250 251 250
205 214 242 266 262 265 266 269 285 294 299 308 306 310 323 309 310 326 332 342 354 2 6 5 9 15 13 22 41 12 0 17 11 351 355 357 354 329 320 323 317 312 313 309 304 300 298 298 295 296 293 285 282 272 260 258 264 265 266 269 269 267 268 269 267 264 262 260 257 254 254 254 252 250 247 246 245 245 245 246 247 248 249 250 251
205 219 246 263 263 269 265 263 277 284 290 297 292 297 305 284 295 312 315 325 335 342 352 355 359 6 5 11 27 8 354 6 7 1 7 1 360 356 312 304 300 297 296 294 294 294 290 285 281 282 280 268 267 278 272 262 262 261 261 266 268 268 270 270 268 265 262 261 260 257 255 255 254 254 252 249 246 245 245 245 247 249 250 250 250
210 225 250 259 259 269 266 261 271 278 284 286 282 292 289 258 278 292 293 311 315 312 326 335 341 353 354 357 12 360 350 2 358 349 354 352 351 350 305 278 275 276 279 283 287 292 293 286 275 264 257 253 256 265 267 266 270 272 273 275 275 273 273 273 272 271 266 262 260 259 256 255 254 254 256 255 251 248 246 246 247 248 250 252 253
218 230 249 252 251 262 264 259 264 271 279 280 279 285 277 264 272 264 272 298 294 280 300 315 325 337 340 342 349 344 349 0 356 344 343 340 342 345 332 311 287 277 277 278 279 285 290 288 285 285 282 280 278 276 274 273 275 277 279 282 283 282 279 278 277 277 272 264 259 257 257 258 257 255 255 257 256 254 250 249 248 248 250 252 253
223 228 242 246 244 250 253 251 256 265 272 274 274 277 268 264 266 246 262 290 283 248 273 297 309 315 323 330 322 322 338 350 351 346 335 326 330 335 331 321 303 288 283 280 281 285 288 286 286 290 292 293 293 290 286 283 280 279 281 284 287 287 287 284 281 280 281 276 269 265 262 259 258 256 255 256 257 257 255 252 251 251 250 251 250
230 228 234 236 234 239 243 241 243 252 262 264 266 269 262 258 263 260 267 284 271 235 256 281 293 296 306 314 292 298 318 331 340 343 330 316 315 310 304 299 291 287 283 280 281 284 286 287 287 288 291 292 291 290 290 289 288 288 289 290 289 285 283 282 278 275 275 274 271 269 267 265 262 258 255 255 256 256 256 255 254 253 252 252 251
231 229 232 232 230 232 235 232 232 238 244 248 254 263 262 257 264 270 273 278 268 252 262 271 259 267 291 305 297 299 314 325 333 337 331 323 319 302 290 289 286 286 285 283 285 286 287 291 293 292 292 290 286 285 287 287 287 288 292 296 296 291 286 282 279 276 273 270 268 267 269 271 270 265 258 255 254 255 256 256 255 255 254 253 252
235 233 236 236 230 229 231 229 228 229 229 230 240 255 260 257 261 268 273 276 271 264 268 265 241 243 270 286 289 294 306 314 321 328 325 311 306 302 298 297 294 292 290 287 289 289 288 292 295 293 291 289 287 287 288 288 286 284 286 290 291 292 291 284 278 273 269 268 268 268 270 272 274 274 269 260 255 254 255 255 256 256 255 253 252
241 236 237 240 237 231 230 229 228 229 228 225 231 246 254 256 259 262 268 273 270 267 266 260 251 252 263 274 279 284 294 303 311 315 308 299 303 305 303 299 293 289 285 282 281 280 280 284 288 291 293 292 289 287 287 287 285 282 281 280 280 283 284 284 284 278 270 268 269 270 271 273 275 276 274 268 260 255 254 254 255 256 256 255 254
240 235 234 239 240 233 230 231 231 230 231 229 231 239 248 256 261 262 264 265 263 261 259 257 259 261 265 270 275 281 289 296 301 302 304 307 311 311 308 305 301 295 292 290 286 282 279 279 282 286 288 287 286 287 288 287 284 283 284 283 282 280 281 287 293 291 280 272 270 271 271 272 272 273 274 273 267 261 256 255 255 256 257 257 257
237 235 234 236 237 232 229 231 232 230 230 229 230 236 244 252 256 257 258 256 251 248 248 250 257 264 267 271 275 280 286 290 294 300 304 308 310 310 309 307 305 300 296 295 292 286 282 281 282 282 282 281 282 284 285 283 280 281 284 285 286 286 282 280 278 277 275 270 269 270 269 268 270 272 274 274 271 269 264 259 257 256 257 258 258
238 236 235 234 232 232 231 233 234 232 228 225 225 232 239 242 246 248 248 247 244 240 244 250 255 261 268 273 276 279 283 287 292 297 301 304 305 305 303 300 297 294 292 291 289 286 284 283 282 283 283 283 281 280 281 279 278 279 281 281 281 280 277 275 276 279 281 281 281 278 273 270 270 273 276 276 273 271 270 267 260 255 255 257 258
244 241 237 235 232 233 235 235 233 230 227 226 228 232 232 231 237 241 241 243 242 238 245 254 257 261 267 272 275 277 280 285 291 294 298 302 303 304 304 302 298 294 290 287 285 283 283 282 282 283 283 282 281 281 280 276 274 276 277 276 277 279 281 282 283 286 287 287 288 285 277 271 267 267 270 274 275 273 271 269 263 256 253 254 257
249 245 241 240 238 238 238 236 233 229 228 230 234 233 227 224 228 234 238 242 239 232 238 248 253 259 266 269 273 277 279 282 286 290 293 297 301 303 304 302 299 294 289 284 280 279 279 278 279 280 280 279 278 278 278 277 276 275 275 275 277 280 283 282 282 286 288 289 288 285 280 272 267 265 264 266 270 273 271 268 267 262 256 254 256
250 249 247 244 241 242 245 246 241 233 230 235 238 233 228 226 228 232 239 242 239 235 240 246 249 256 263 267 271 277 282 285 287 289 293 296 298 300 300 300 298 295 291 287 283 279 276 275 275 274 274 275 276 277 278 279 278 276 276 276 276 277 278 278 280 282 282 281 278 275 272 267 264 265 264 261 261 265 269 272 273 270 264 260 257
253 249 247 247 245 244 244 245 244 237 236 244 245 235 231 232 233 235 240 244 245 245 248 250 252 255 259 264 270 277 283 289 292 295 298 300 300 301 300 299 298 296 294 291 286 283 279 276 274 272 270 271 272 274 277 280 281 280 277 273 272 273 273 273 275 276 276 276 275 274 273 270 266 264 263 260 256 254 258 264 267 266 264 264 263
258 251 247 249 253 251 243 243 245 242 240 242 239 235 235 236 235 237 241 245 248 249 250 253 256 259 262 267 274 281 287 293 297 300 302 303 304 303 302 301 300 299 298 294 291 288 284 280 276 274 273 271 268 267 266 267 269 273 276 275 274 274 273 272 273 273 273 272 275 279 278 274 270 268 266 264 262 259 255 254 257 258 258 260 263
253 252 251 251 253 252 246 247 251 245 238 235 236 238 240 239 238 239 241 242 245 247 251 257 262 265 268 271 277 282 288 293 297 297 296 297 298 296 295 296 296 296 295 294 293 291 289 286 282 280 279 274 270 268 266 263 261 263 268 272 271 267 265 265 265 267 267 263 265 272 274 272 271 272 272 271 270 269 265 259 257 258 259 261 263
252 251 251 251 251 248 244 248 249 241 235 234 237 240 242 240 239 239 238 240 243 248 253 258 263 267 270 275 280 285 290 294 294 292 292 295 296 294 292 291 289 288 286 285 286 286 287 285 283 282 283 278 271 268 266 263 259 258 259 260 259 259 260 261 263 266 269 268 266 267 270 271 271 271 271 272 271 271 271 265 260 258 261 264 266
256 252 249 249 248 246 245 247 243 237 236 237 238 241 243 241 237 235 236 239 244 249 254 258 263 269 276 282 286 289 293 293 291 291 294 297 297 295 293 292 289 286 283 281 280 280 279 278 275 273 273 271 269 267 266 263 259 257 257 258 258 260 264 267 268 270 273 274 270 266 267 271 270 268 271 273 271 269 269 267 263 260 260 262 265
256 254 252 250 246 244 246 244 238 236 237 237 239 243 243 238 232 229 231 238 244 248 252 259 267 275 282 286 287 288 291 291 291 293 295 296 295 295 294 293 290 287 286 284 282 280 279 278 278 277 276 273 269 266 264 261 258 257 258 259 260 262 266 269 270 271 271 270 265 262 265 269 269 269 271 273 272 269 266 263 262 260 259 260 262
258 256 254 251 248 246 244 238 236 237 237 238 242 242 236 230 225 222 225 230 235 238 246 262 273 277 278 282 286 289 293 295 296 296 297 297 297 298 297 294 290 287 286 284 282 280 279 279 280 282 284 283 281 276 271 264 260 256 254 257 260 262 265 266 268 270 270 266 261 258 261 264 266 267 270 271 270 267 263 258 258 260 260 257 256
259 257 255 253 248 244 239 235 236 239 240 241 239 230 223 221 218 217 218 219 225 234 244 258 266 268 271 278 287 293 297 298 294 294 296 297 298 298 296 293 287 284 284 283 280 279 278 276 274 275 275 276 279 282 281 275 268 260 255 255 257 257 259 262 264 267 268 266 260 255 259 264 265 263 265 269 271 269 263 257 256 258 256 251 248